| time (UTC) | temp F | wind direction | speed MPH | gust MPH | rain 1hr in | rain 24hr in | rain mn in | humidity % | barometer mb |
| 20260504015804 | 51 | 218 | 3.0 | 6.0 | 0.00 | 0.02 | 0.00 | 96 | 1011.1 |
| 20260504015304 | 51 | 200 | 2.0 | 6.0 | 0.00 | 0.02 | 0.00 | 96 | 1011.1 |
| 20260504014804 | 51 | 235 | 1.0 | 3.0 | 0.00 | 0.02 | 0.00 | 96 | 1011.1 |
| 20260504014304 | 51 | 235 | 3.0 | 5.0 | 0.00 | 0.02 | 0.00 | 96 | 1011.1 |
| 20260504013804 | 51 | 202 | 1.0 | 3.0 | 0.00 | 0.02 | 0.00 | 96 | 1011.1 |
| 20260504012304 | 52 | 209 | 2.0 | 8.0 | 0.00 | 0.02 | 0.00 | 96 | 1011.0 |
| 20260504005804 | 52 | 249 | 3.0 | 7.0 | 0.00 | 0.02 | 0.00 | 96 | 1011.2 |
| 20260504005305 | 52 | 232 | 4.0 | 7.0 | 0.00 | 0.02 | 0.00 | 96 | 1011.1 |
| 20260504003803 | 52 | 240 | 4.0 | 10.0 | 0.00 | 0.03 | 0.00 | 96 | 1011.1 |
| 20260504002803 | 52 | 216 | 5.0 | 8.0 | 0.00 | 0.03 | 0.00 | 95 | 1011.2 |
| 20260504002304 | 52 | 253 | 3.0 | 8.0 | 0.00 | 0.03 | 0.00 | 95 | 1011.1 |
| 20260504001304 | 52 | 220 | 3.0 | 8.0 | 0.00 | 0.03 | 0.00 | 95 | 1011.1 |
| 20260504000304 | 52 | 238 | 5.0 | 9.0 | 0.00 | 0.03 | 0.00 | 95 | 1011.0 |
| 20260503235805 | 52 | 245 | 3.0 | 6.0 | 0.00 | 0.03 | 0.00 | 95 | 1011.0 |
| 20260503234303 | 52 | 248 | 5.0 | 8.0 | 0.00 | 0.03 | 0.00 | 95 | 1011.2 |
| 20260503233804 | 52 | 243 | 5.0 | 8.0 | 0.00 | 0.03 | 0.00 | 95 | 1011.2 |
| 20260503232804 | 52 | 242 | 5.0 | 9.0 | 0.00 | 0.03 | 0.00 | 94 | 1011.1 |
| 20260503231804 | 52 | 230 | 5.0 | 7.0 | 0.00 | 0.03 | 0.00 | 94 | 1011.0 |
| 20260503231304 | 52 | 232 | 3.0 | 8.0 | 0.00 | 0.03 | 0.00 | 94 | 1011.0 |
| 20260503225304 | 52 | 238 | 4.0 | 8.0 | 0.00 | 0.03 | 0.03 | 93 | 1010.9 |
| 20260503223303 | 52 | 227 | 4.0 | 7.0 | 0.00 | 0.03 | 0.03 | 93 | 1010.9 |
| 20260503221804 | 52 | 224 | 5.0 | 7.0 | 0.00 | 0.03 | 0.03 | 92 | 1010.8 |
| 20260503221304 | 52 | 247 | 3.0 | 8.0 | 0.00 | 0.03 | 0.03 | 92 | 1010.7 |
| 20260503215804 | 53 | 240 | 3.0 | 7.0 | 0.00 | 0.03 | 0.03 | 92 | 1010.7 |
| 20260503214804 | 52 | 246 | 3.0 | 5.0 | 0.00 | 0.03 | 0.03 | 92 | 1010.6 |
| 20260503214303 | 52 | 242 | 3.0 | 7.0 | 0.00 | 0.03 | 0.03 | 91 | 1010.6 |
| 20260503213804 | 53 | 226 | 3.0 | 6.0 | 0.00 | 0.03 | 0.03 | 91 | 1010.6 |
| 20260503212803 | 53 | 208 | 2.0 | 3.0 | 0.00 | 0.04 | 0.03 | 91 | 1010.6 |
| 20260503212305 | 53 | 242 | 2.0 | 5.0 | 0.00 | 0.04 | 0.03 | 91 | 1010.7 |
| 20260503211804 | 53 | 239 | 3.0 | 5.0 | 0.00 | 0.04 | 0.03 | 91 | 1010.7 |
| 20260503211304 | 53 | 204 | 2.0 | 3.0 | 0.00 | 0.04 | 0.03 | 90 | 1010.6 |
| 20260503203804 | 54 | 218 | 1.0 | 3.0 | 0.00 | 0.04 | 0.03 | 89 | 1010.2 |
| 20260503200804 | 55 | 228 | 2.0 | 3.0 | 0.00 | 0.04 | 0.03 | 87 | 1009.9 |
| 20260503200303 | 55 | 229 | 3.0 | 3.0 | 0.00 | 0.04 | 0.03 | 87 | 1009.8 |
| 20260503195804 | 55 | 229 | 2.0 | 3.0 | 0.00 | 0.04 | 0.03 | 87 | 1009.8 |
| 20260503194304 | 55 | 222 | 3.0 | 5.0 | 0.00 | 0.04 | 0.03 | 86 | 1009.7 |
| 20260503193804 | 56 | 210 | 3.0 | 6.0 | 0.00 | 0.04 | 0.03 | 86 | 1009.7 |
| 20260503192803 | 56 | 247 | 2.0 | 9.0 | 0.00 | 0.04 | 0.03 | 85 | 1009.6 |
| 20260503191803 | 57 | 218 | 2.0 | 3.0 | 0.00 | 0.04 | 0.03 | 83 | 1009.5 |
| 20260503190805 | 58 | 200 | 1.0 | 3.0 | 0.00 | 0.04 | 0.03 | 83 | 1009.3 |
| 20260503185804 | 59 | 198 | 1.0 | 3.0 | 0.00 | 0.04 | 0.03 | 82 | 1009.3 |
| 20260503185305 | 59 | 201 | 3.0 | 6.0 | 0.00 | 0.05 | 0.03 | 81 | 1009.1 |
| 20260503183304 | 60 | 199 | 1.0 | 3.0 | 0.00 | 0.05 | 0.03 | 80 | 1009.1 |
| 20260503182305 | 61 | 207 | 2.0 | 5.0 | 0.00 | 0.05 | 0.03 | 80 | 1008.9 |
| 20260503181804 | 61 | 231 | 2.0 | 7.0 | 0.00 | 0.06 | 0.03 | 79 | 1008.9 |
| 20260503180803 | 61 | 220 | 2.0 | 7.0 | 0.00 | 0.06 | 0.03 | 78 | 1008.7 |
| 20260503180304 | 61 | 229 | 3.0 | 7.0 | 0.00 | 0.06 | 0.03 | 78 | 1008.7 |
| 20260503175305 | 62 | 201 | 2.0 | 3.0 | 0.00 | 0.06 | 0.03 | 78 | 1008.7 |
| 20260503174304 | 61 | 227 | 3.0 | 9.0 | 0.00 | 0.06 | 0.03 | 79 | 1008.7 |
| 20260503140303 | 61 | 218 | 7.0 | 10.0 | 0.00 | 0.07 | 0.02 | 79 | 1009.2 |
| 20260503130804 | 64 | 245 | 5.0 | 9.0 | 0.00 | 0.07 | 0.02 | 75 | 1009.2 |
| 20260503110304 | 63 | 201 | 4.0 | 8.0 | 0.00 | 0.07 | 0.02 | 81 | 1009.3 |
| 20260503090304 | 56 | 269 | 5.0 | 7.0 | 0.00 | 0.06 | 0.01 | 97 | 1009.4 |
| 20260503081304 | 55 | 214 | 2.0 | 6.0 | 0.00 | 0.06 | 0.01 | 97 | 1009.3 |
| 20260503080304 | 54 | 240 | 3.0 | 7.0 | 0.00 | 0.06 | 0.01 | 97 | 1009.4 |
| 20260503072305 | 55 | 222 | 3.0 | 7.0 | 0.00 | 0.06 | 0.01 | 97 | 1009.3 |
| 20260503071805 | 55 | 220 | 1.0 | 5.0 | 0.00 | 0.06 | 0.01 | 97 | 1009.3 |
| 20260503060304 | 54 | 216 | 1.0 | 3.0 | 0.00 | 0.06 | 0.01 | 97 | 1008.9 |
| 20260503054305 | 54 | 216 | 1.0 | 3.0 | 0.00 | 0.06 | 0.01 | 97 | 1008.9 |
| 20260503052804 | 54 | 214 | 2.0 | 3.0 | 0.00 | 0.06 | 0.01 | 97 | 1008.9 |
| 20260503051304 | 54 | 214 | 1.0 | 3.0 | 0.00 | 0.06 | 0.01 | 97 | 1008.9 |
| 20260503050805 | 54 | 214 | 0.0 | 2.0 | 0.00 | 0.06 | 0.01 | 97 | 1008.9 |
| 20260503050304 | 54 | 214 | 0.0 | 2.0 | 0.00 | 0.06 | 0.01 | 97 | 1008.8 |
| 20260503044805 | 54 | 215 | 0.0 | 1.0 | 0.00 | 0.06 | 0.01 | 97 | 1008.8 |
| 20260503044304 | 54 | 215 | 0.0 | 2.0 | 0.00 | 0.06 | 0.01 | 97 | 1008.9 |
| 20260503043804 | 54 | 215 | 0.0 | 3.0 | 0.00 | 0.06 | 0.01 | 97 | 1008.9 |
| 20260503042805 | 54 | 217 | 0.0 | 1.0 | 0.00 | 0.06 | 0.01 | 97 | 1009.0 |
| 20260503041805 | 54 | 217 | 0.0 | 2.0 | 0.00 | 0.06 | 0.01 | 97 | 1009.0 |
| 20260503041304 | 54 | 217 | 0.0 | 2.0 | 0.00 | 0.06 | 0.01 | 97 | 1008.9 |
| 20260503040805 | 54 | 217 | 1.0 | 3.0 | 0.00 | 0.06 | 0.01 | 97 | 1008.9 |
| 20260503034305 | 54 | 215 | 0.0 | 0.0 | 0.00 | 0.06 | 0.01 | 97 | 1009.0 |
| 20260503033304 | 54 | 215 | 0.0 | 2.0 | 0.00 | 0.06 | 0.01 | 97 | 1008.9 |
| 20260503032805 | 54 | 215 | 0.0 | 2.0 | 0.00 | 0.06 | 0.01 | 97 | 1008.9 |
| 20260503032305 | 54 | 215 | 0.0 | 2.0 | 0.00 | 0.06 | 0.01 | 97 | 1008.9 |
| 20260503031305 | 54 | 215 | 1.0 | 2.0 | 0.00 | 0.06 | 0.01 | 97 | 1009.0 |
| 20260503030805 | 53 | 215 | 1.0 | 3.0 | 0.00 | 0.06 | 0.01 | 97 | 1009.0 |
| 20260503025804 | 54 | 216 | 2.0 | 3.0 | 0.00 | 0.06 | 0.01 | 97 | 1009.0 |
| 20260503024304 | 54 | 243 | 2.0 | 5.0 | 0.00 | 0.06 | 0.01 | 97 | 1009.1 |
| 20260503023805 | 54 | 232 | 2.0 | 7.0 | 0.00 | 0.06 | 0.01 | 97 | 1009.1 |
| 20260503023304 | 54 | 219 | 1.0 | 3.0 | 0.00 | 0.06 | 0.01 | 97 | 1009.1 |
| 20260503022805 | 54 | 220 | 1.0 | 2.0 | 0.00 | 0.06 | 0.01 | 97 | 1009.1 |